Location: Unspecified
(10.5000°N, 0.0000°E)
Time: 11:20:12
(UTC+00:00)

Tiangong 2 - Visible Passes

Search period start: 18 June 2019 00:00
Search period end: 28 June 2019 00:00
Orbit: 376 x 389 km, 42.8° (Epoch: 18 June)

Date Brightness Start Highest point End Pass type
(mag) Time Alt. Az. Time Alt. Az. Time Alt. Az.
18 Jun 1.7 04:44:10 24° WSW 04:45:40 42° NW 04:48:41 10° NNE visible
19 Jun 3.3 03:47:02 26° ENE 03:47:02 26° ENE 03:48:38 10° NE visible
20 Jun 3.1 04:22:01 17° NW 04:22:01 17° NW 04:24:11 10° N visible
21 Jun 4.6 03:24:44 10° NNE 03:24:44 10° NNE 03:24:48 10° NNE visible
